| time (UTC) | temp F | wind direction | speed MPH | gust MPH | rain 1hr in | rain 24hr in | rain mn in | humidity % | barometer mb |
| 20260505040017 | 68 | 180 | 6.0 | 12.0 | 0.00 | 0.00 | 0.00 | 61 | 1006.0 |
| 20260505034530 | 68 | 229 | 4.0 | 10.0 | 0.00 | 0.00 | 0.00 | 60 | 1006.2 |
| 20260505033030 | 69 | 204 | 5.0 | 10.0 | 0.00 | 0.00 | 0.00 | 60 | 1006.2 |
| 20260505031524 | 68 | 198 | 4.0 | 8.0 | 0.00 | 0.00 | 0.00 | 59 | 1005.9 |
| 20260505030024 | 69 | 190 | 2.0 | 7.0 | 0.00 | 0.00 | 0.00 | 59 | 1005.6 |
| 20260505024522 | 69 | 146 | 3.0 | 6.0 | 0.00 | 0.00 | 0.00 | 58 | 1005.4 |
| 20260505023023 | 70 | 167 | 3.0 | 8.0 | 0.00 | 0.00 | 0.00 | 57 | 1005.1 |
| 20260505021518 | 70 | 205 | 3.0 | 6.0 | 0.00 | 0.00 | 0.00 | 57 | 1004.8 |
| 20260505020026 | 71 | 219 | 3.0 | 5.0 | 0.00 | 0.00 | 0.00 | 56 | 1004.7 |
| 20260505014528 | 71 | 193 | 4.0 | 6.0 | 0.00 | 0.00 | 0.00 | 54 | 1004.4 |
| 20260505013029 | 72 | 206 | 3.0 | 6.0 | 0.00 | 0.00 | 0.00 | 54 | 1004.4 |
| 20260505011526 | 73 | 138 | 4.0 | 9.0 | 0.00 | 0.00 | 0.00 | 53 | 1004.4 |
| 20260505010024 | 74 | 139 | 5.0 | 8.0 | 0.00 | 0.00 | 0.00 | 52 | 1004.2 |
| 20260505004507 | 74 | 172 | 3.0 | 8.0 | 0.00 | 0.00 | 0.00 | 51 | 1004.0 |
| 20260505003018 | 75 | 155 | 4.0 | 10.0 | 0.00 | 0.00 | 0.00 | 49 | 1003.9 |
| 20260505001509 | 76 | 181 | 4.0 | 10.0 | 0.00 | 0.00 | 0.00 | 47 | 1003.8 |
| 20260505000009 | 77 | 203 | 3.0 | 10.0 | 0.00 | 0.00 | 0.00 | 44 | 1003.8 |
| 20260504234511 | 78 | 158 | 5.0 | 15.0 | 0.00 | 0.00 | 0.00 | 42 | 1003.7 |
| 20260504233010 | 79 | 214 | 8.0 | 20.0 | 0.00 | 0.00 | 0.00 | 40 | 1003.9 |
| 20260504231507 | 81 | 162 | 9.0 | 16.0 | 0.00 | 0.00 | 0.00 | 39 | 1003.9 |
| 20260504230008 | 81 | 208 | 4.0 | 18.0 | 0.00 | 0.00 | 0.00 | 41 | 1004.0 |
| 20260504224508 | 81 | 183 | 8.0 | 17.0 | 0.00 | 0.00 | 0.00 | 39 | 1003.9 |
| 20260504223013 | 81 | 181 | 6.0 | 15.0 | 0.00 | 0.00 | 0.00 | 39 | 1003.8 |
| 20260504221512 | 81 | 208 | 5.0 | 15.0 | 0.00 | 0.00 | 0.00 | 41 | 1003.7 |
| 20260504220009 | 80 | 174 | 8.0 | 18.0 | 0.00 | 0.00 | 0.00 | 41 | 1003.8 |
| 20260504214514 | 81 | 204 | 11.0 | 19.0 | 0.00 | 0.00 | 0.00 | 40 | 1004.0 |
| 20260504213017 | 81 | 190 | 6.0 | 18.0 | 0.00 | 0.00 | 0.00 | 41 | 1004.0 |
| 20260504211506 | 81 | 131 | 4.0 | 19.0 | 0.00 | 0.00 | 0.00 | 42 | 1003.9 |
| 20260504210014 | 80 | 181 | 7.0 | 21.0 | 0.00 | 0.00 | 0.00 | 45 | 1003.9 |
| 20260504204511 | 80 | 192 | 10.0 | 16.0 | 0.00 | 0.00 | 0.00 | 43 | 1004.2 |
| 20260504203021 | 80 | 204 | 9.0 | 21.0 | 0.00 | 0.00 | 0.00 | 43 | 1004.4 |
| 20260504201515 | 80 | 206 | 6.0 | 18.0 | 0.00 | 0.00 | 0.00 | 43 | 1004.2 |
| 20260504200015 | 79 | 199 | 12.0 | 16.0 | 0.00 | 0.00 | 0.00 | 43 | 1004.5 |
| 20260504194516 | 78 | 137 | 11.0 | 16.0 | 0.00 | 0.00 | 0.00 | 43 | 1005.1 |
| 20260504193017 | 79 | 180 | 5.0 | 13.0 | 0.00 | 0.00 | 0.00 | 46 | 1005.5 |
| 20260504191520 | 78 | 214 | 5.0 | 12.0 | 0.00 | 0.00 | 0.00 | 46 | 1005.7 |
| 20260504190018 | 76 | 196 | 4.0 | 16.0 | 0.00 | 0.00 | 0.00 | 46 | 1005.9 |
| 20260504184518 | 77 | 182 | 8.0 | 17.0 | 0.00 | 0.00 | 0.00 | 45 | 1006.1 |
| 20260504183017 | 78 | 200 | 7.0 | 19.0 | 0.00 | 0.00 | 0.00 | 43 | 1005.9 |
| 20260504181517 | 79 | 188 | 5.0 | 14.0 | 0.00 | 0.00 | 0.00 | 43 | 1005.9 |
| 20260504180016 | 78 | 190 | 7.0 | 16.0 | 0.00 | 0.00 | 0.00 | 43 | 1005.9 |
| 20260504174516 | 78 | 174 | 8.0 | 16.0 | 0.00 | 0.00 | 0.00 | 45 | 1006.0 |
| 20260504173010 | 78 | 153 | 7.0 | 21.0 | 0.00 | 0.00 | 0.00 | 45 | 1006.0 |
| 20260504171520 | 78 | 217 | 7.0 | 15.0 | 0.00 | 0.00 | 0.00 | 43 | 1006.1 |
| 20260504081524 | 61 | 214 | 3.0 | 6.0 | 0.00 | 0.00 | 0.00 | 64 | 1008.3 |
| 20260504050012 | 63 | 201 | 4.0 | 8.0 | 0.00 | 0.00 | 0.00 | 59 | 1009.8 |
| 20260504044514 | 64 | 174 | 4.0 | 10.0 | 0.00 | 0.00 | 0.00 | 57 | 1010.0 |
| 20260504043007 | 64 | 174 | 5.0 | 10.0 | 0.00 | 0.00 | 0.00 | 56 | 1010.1 |
| 20260504041524 | 65 | 133 | 5.0 | 10.0 | 0.00 | 0.00 | 0.00 | 55 | 1010.2 |